Location: Holbach
(51.5399°N, 10.6036°E)
Time: 15:27:06
(UTC+00:00)

CZ-4C R/B - Pass Details

Date: 18 September 2020
Orbit: 627 x 1375 km, 63.4° (Epoch: 21 October)

Event Time Altitude Azimuth Distance (km) Brightness Sun altitude
Exits shadow 23:01:58 31° 37° (NE) 1,554 3.8 -37.0°
Drops below altitude 10° 23:05:17 10° 44° (NE) 2,746 5.3 -37.0°
Sets 23:08:10 0° 47° (NE) 3,824 6.1 -37.1°
